Regional Weather Roundup
Issued by NWS Albany, NY

Home | Current Version | Previous Version | Graphics & Text | Print | Product List | Glossary On
Versions: 1 2 3 4 5 6 7 8 9 10 11 12 13 14 15 16 17 18 19 20 21 22 23 24 25 26 27 28 29 30 31 32 33 34 35 36 37 38 39 40 41 42 43 44 45 46 47 48 49
000
ASUS41 KALY 040710
RWRALY

NEW YORK STATE HOURLY WEATHER ROUNDUP
NATIONAL WEATHER SERVICE ALBANY NY
300 AM EDT TUE AUG 04 2015

NOTE: "FAIR" INDICATES FEW OR NO CLOUDS BELOW 12,000 FEET WITH NO
SIGNIFICANT WEATHER AND/OR NO OBSTRUCTIONS TO VISIBILITY.

NYZ032-033-038>043-046>054-057>066-NYZ062>081-040800-
EAST


CITY           SKY/WX    TMP DP  RH WIND       PRES   REMARKS
ALBANY         CLOUDY    68  65  90 CALM      29.82S
GLENS FALLS    CLOUDY    66  63  90 SE5       29.81S
POUGHKEEPSIE   CLOUDY    73  63  70 CALM      29.79F
NEWBURGH       PTCLDY    70  63  78 W7        29.83
MONTGOMERY     MOCLDY    67  62  84 S3        29.81S
WHITE PLAINS   CLOUDY    71  65  81 S3        29.82F
ISLIP          MOCLDY    77  74  90 SW12      29.81F
NEW YORK CITY  MOCLDY    80  67  64 SW12      29.81S
CENTRAL PARK   CLOUDY    80  66  62 VRB7      29.84F
$$

NYZ005>009-017-018-044>046-055-056-040800-
CENTRAL


CITY           SKY/WX    TMP DP  RH WIND       PRES   REMARKS
FULTON         CLEAR     60  58  92 CALM      29.79F FOG
SYRACUSE       PTCLDY    62  61  96 S5        29.80R
ROME           PTCLDY    61  59  93 CALM      29.82S
ELMIRA         PTCLDY    61  60  97 SW3       29.82S
BINGHAMTON     CLOUDY    61  58  90 SE5       29.85R
MONTICELLO     CLOUDY    66  64  94 SE3       29.87R
$$

NYZ026>034-041>043-040800-
NORTH


CITY           SKY/WX    TMP DP  RH WIND       PRES   REMARKS
WATERTOWN      CLOUDY    64  59  83 S3        29.77F
FORT DRUM      NOT AVBL
MASSENA        CLEAR     60  57  89 SW3       29.76S
SARANAC LAKE   MOCLDY    54  53  97 SW3       29.81S
PLATTSBURGH    MOCLDY    59  59 100 CALM      29.77S
$$

NYZ001>004-010>016-019>021-040800-
WEST


CITY           SKY/WX    TMP DP  RH WIND       PRES   REMARKS
NIAGARA FALLS  CLOUDY    64  56  75 CALM      29.81R
BUFFALO        PTCLDY    65  59  81 S6        29.82R
DUNKIRK        PTCLDY    61  60  97 S5        29.83S
JAMESTOWN      PTCLDY    63  57  82 CALM      29.88S
WELLSVILLE     PTCLDY    62  55  77 W3        29.89F
ROCHESTER      PTCLDY    63  60  90 SW8       29.82R
PENN YAN       CLOUDY    67  63  87 S6        29.84R
$$

             KEY
       WCI = WIND CHILL INDEX
       VSB = VISIBILITY
       HX  = HEAT INDEX
$$



USA.gov is the U.S. government's official web portal to all federal, state and local government web resources and services.